www.pogodaiklimat.ru
ПОГОДА в Кларксвилле
Время
и дата
05:52 22.05
06:01 22.05
06:39 22.05
06:52 22.05
07:01 22.05
07:52 22.05
08:52 22.05
09:37 22.05
09:52 22.05
10:52 22.05
11:19 22.05
11:31 22.05
11:52 22.05
12:43 22.05
12:52 22.05
13:52 22.05
14:52 22.05
15:04 22.05
15:52 22.05
16:52 22.05
17:52 22.05
18:52 22.05
19:52 22.05
20:52 22.05
21:52 22.05
22:28 22.05
22:48 22.05
22:52 22.05
23:52 22.05
00:52 23.05
01:52 23.05
02:09 23.05
02:52 23.05
03:52 23.05
04:52 23.05
05:52 23.05
06:52 23.05
07:52 23.05
08:52 23.05
09:52 23.05
10:52 23.05
11:13 23.05
11:52 23.05
12:52 23.05
13:17 23.05
13:52 23.05
14:52 23.05
15:52 23.05
Ветер
(напр.,м/с)
Видим. Явления Облачность Т
(С)
Тd
(С)
f
(%)
Тe
(С)
Тes
(С)
Комфортность P
(гПа)
Po
(гПа)
Тmin
(С)
Tmax
(С)
R
(мм)
R24
(мм)
S
(см)
З 1 16 км 10/10 330 м +20.0 +17.8 87 +24 +24 комфорт 1021.4 1001.7 +19.4 +20.0 1.5 29.2
З 1 16 км 10/10 180 м +20.0 +17.8 87 +23 +23 комфорт 1001.7
С 1 10 км дымка 10/10 210 м +19.4 +17.2 87 +22 +22 комфорт 1001.7
СЗ 2 13 км 10/10 210 м +19.4 +17.2 87 +21 +21 комфорт 1021.5 1001.7
СЗ 2 14 км 10/10 210 м +20.0 +17.8 87 +23 +23 комфорт 1001.7
С 3 13 км 10/10 180 м +18.9 +16.7 87 +20 +20 1022.3 1002.4
С 2 16 км 10/10 270 м +19.4 +16.1 81 +21 +21 комфорт 1023.0 1003.0
С 2 16 км 10/10 300 м +20.0 +16.1 78 +23 +23 комфорт 1003.4
С 2 16 км 10/10 300 м +19.4 +16.1 81 +21 +21 комфорт 1023.3 1003.4
СЗ 2 16 км 10/10 270 м +18.9 +15.6 81 +20 +20 1024.0 1004.0
СЗ 2 16 км 10/10 300 м +18.3 +15.6 84 +18 +18 1004.0
С 2 14 км 10/10 270 м +18.3 +15.6 84 +18 +18 1004.0
С 2 11 км 10/10 210 м +17.8 +15.0 84 +17 +17 1024.1 1004.0 +17.8 +20.0
С 1 14 км 10/10 270 м +18.9 +15.0 78 +20 +20 1003.7
С 2 16 км 10/10 450 м +19.4 +15.0 76 +21 +21 комфорт 1023.6 1003.7
С 2 16 км 10/10 510 м +19.4 +14.4 73 +21 +21 комфорт 1023.4 1003.4
С 2 16 км 10/10 660 м +19.4 +13.9 70 +21 +21 комфорт 1023.0 1003.0
С 2 16 км 10/10 660 м +19.4 +13.9 70 +21 +21 комфорт 1002.7
С 2 10 км слабый дождь 10/10 630 м +18.9 +13.9 73 +20 +20 1023.3 1003.4
СВ 2 16 км 10/10 1800 м +18.3 +13.3 73 +19 +19 1023.3 1003.4
СВ 1 16 км 10/10 1020 м +18.3 +13.3 73 +19 +19 1023.1 1003.0 +17.8 +20.0
С 2 16 км 10/0 2100 м
[Ac]
+18.9 +13.3 70 +20 +20 1023.0 1003.0
С 2 16 км 10/10 1020 м +17.8 +13.3 75 +18 +18 1023.5 1003.4
С 2 16 км 10/10 990 м +17.2 +11.1 67 +17 +17 1023.8 1003.7
С 1 16 км 8/8 900 м +16.1 +10.0 67 +16 +16 1023.2 1003.4
СВ 1 16 км 8/8 870 м +16.1 +10.0 67 +16 +16 1003.0
С 1 16 км 10/10 900 м +16.0 +10.0 68 +16 +16 1003.0
СВ 1 16 км 10/10 900 м +16.1 +10.0 67 +16 +16 1022.9 1003.0
С 2 16 км 8/0 2700 м
[Ac]
+16.1 +10.0 67 +15 +15 1022.5 1002.4 +15.6 +18.9
С 2 16 км 2/0 3300 м
[Ac]
+15.0 +10.0 72 +14 +14 1021.3 1001.4
С 2 16 км 5/5 900 м +15.6 +10.6 72 +15 +15 1020.6 1000.7
СВ 2 16 км 10/10 870 м +15.6 +10.6 72 +15 +15 1000.7
СВ 2 16 км 10/10 810 м +16.1 +11.1 72 +15 +15 1020.2 1000.4
СВ 2 16 км 10/10 780 м +16.7 +11.7 72 +16 +16 1020.4 1000.4
С 2 16 км 10/10 750 м +16.7 +11.7 72 +16 +16 1021.0 1001.0
СВ 2 10 км слабый дождь 10/10 660 м +16.1 +11.1 72 +15 +15 1021.2 1001.0 +15.0 +16.7 0.3 0.3
С 2 16 км 10/10 630 м +15.6 +11.1 75 +15 +15 1021.1 1001.0
С 2 16 км 10/10 690 м +16.1 +11.1 72 +15 +15 1021.4 1001.4
С 2 16 км 10/10 690 м +16.1 +11.1 72 +15 +15 1021.3 1001.4
С 3 16 км 10/10 660 м +14.4 +10.0 75 +13 +13 1021.5 1001.4
СВ 3
{5}
16 км 10/10 360 м +15.6 +10.6 72 +14 +14 1021.2 1001.4
СВ 2
{4}
16 км 10/10 360 м +15.0 +10.6 75 +14 +14 1001.0
СВ 3 16 км 10/10 390 м +15.0 +10.6 75 +13 +13 1020.8 1000.7 +14.4 +16.1
СВ 2 16 км 10/10 420 м +16.7 +11.7 72 +16 +16 1020.5 1000.4
СВ 2 16 км 10/10 450 м +17.2 +11.7 70 +17 +17 1000.4
СВ 2 16 км 10/10 510 м +17.8 +12.2 70 +18 +18 1020.2 1000.0
СВ 2 16 км 10/10 630 м +18.9 +13.3 70 +20 +20 1019.6 999.7
СВ 2 16 км 10/10 690 м +20.0 +13.9 68 +22 +22 комфорт 1019.3 999.4
Местоположение метеостанции Outlaw Field Airport: широта 36.6219 долгота -87.4150 высота над уровнем моря 168 м.
В архиве по умолчанию представлена погода в Кларксвилле за последние 1-2 суток. Обновление информации о фактической погоде в базе происходит ежечасно! Архивные данные за месяц целиком и за предыдущие месяцы Вы можете получить, выбрав интересующий диапазон дат из раскрывающегося списка и нажав кнопку "Ввод!".
Внимание! Архив погоды МЕТАР в базе сайта по станциям, не включенным в климатический монитор, хранится не более 60 дней. Нет смысла пытаться выбрать более раннюю дату.
*Определитесь, кто Вы:
Внимание! Время в таблицах - местное (без учета летнего времени). Для получения всемирного времени необходимо вычесть поправку, которая равна -6 ч.
Смотрите также архив погоды в соседних городах и на ближайших метеорологических станциях:
Партнеры нашего сайта:      
Пояснения к столбцам:
  • Ветер - указаны скорость ветра в м/с - средняя за 10 мин, порывы в срок и между сроками (в фигурных скобках) и направление, откуда дует ветер: С - северный,
  • СВ - северо-восточный, В - восточный, ЮВ - юго-восточный, Ю - южный, ЮЗ - юго-западный, З - западный, СЗ - северо-западный.
  • Видимость - горизонтальная дальность видимости в метрах или километрах. При видимости от 1 до 10 км при отсутствии осадков обычно наблюдается дымка, при ухудшении видимости до 1 км и менее - туман. В сухую погоду видимость может ухудшаться дымом, пылью или мглою.
  • Явления - указаны атмосферные явления, наблюдавшиеся в срок или в последний час перед сроком; фигурными скобками обозначены явления, наблюдавшиеся между сроками (за 1-3 часа до срока); квадратными скобками обозначены град или гололедные отложения с указанием их диаметра в мм.
  • Облачность - указаны через наклонную черту общая и нижняя облачность в баллах и высота нижней границы облаков в метрах; квадратными скобками обозначены формы облаков: Ci - перистые, Cs - перисто-слоистые, Cc - перисто-кучевые, Ac - высококучевые, As - высокослоистые, Sc - слоисто-кучевые, Ns - слоисто-дождевые, Cu - кучевые, Cb - кучево-дождевые. Подробнее классификацию облаков см. в Атласе облаков (PDF).
  • T - Температура воздуха - температура, измеренная на высоте 2 м над землей.
  • Td - Температура точки росы - температура, при понижении до которой содержащийся в воздухе водяной пар достигнет насыщения.
  • f - Относительная влажность воздуха - влажноcть воздуха, измеренная на высоте 2 м над землей.
  • Te - Эффективная температура - температура, которую ощущает одетый по сезону человек в тени. Характеристика душности погоды. При расчете учитывается влияние влажности воздуха и скорости ветра на теплоощущения человека.
  • Tes - Эффективная температура на солнце - температура, которую ощущает человек, с поправкой на солнечный нагрев. Характеристика знойности погоды. Зависит от высоты солнца над горизонтом, облачности и скорости ветра. Ночью, в пасмурную погоду, а также при ветре 12 м/с и более поправка равна нулю.
  • P - Атмосферное давление - приведенное к уровню моря атмосферное давление.
  • Po - Атмосферное давление - измеренное на уровне метеостанции атмосферное давление.
  • Tmin - Минимальная температура - минимум температуры воздуха на высоте 2 м над землей.
  • Tmax - Максимальная температура - максимум температуры воздуха на высоте 2 м над землей.
  • R - Количество осадков - Количество выпавших осадков за период времени, мм. При наведении курсора мыши на число - период времени, за который выпало указанное количество осадков.
  • R24 - Количество осадков - Количество выпавших осадков за 24 часа, мм.
  • S - Снежный покров - Высота снежного покрова, см. При наведении курсора мыши на число - состояние снежного покрова и степень покрытия местности в баллах.